Date,TemperatureHighF,TemperatureAvgF,TemperatureLowF,DewpointHighF,DewpointAvgF,DewpointLowF,HumidityHigh,HumidityAvg,HumidityLow,PressureMaxIn,PressureMinIn,WindSpeedMaxMPH,WindSpeedAvgMPH,GustSpeedMaxMPH,PrecipitationSumIn
2013-1-1,30.0,23.2,18.0,19.0,10.4,2.0,83,59,30,0.00,40.00,7,3,13,0.00
2013-1-2,35.0,28.1,22.0,20.0,14.5,7.0,75,57,40,0.00,40.00,5,2,11,0.00
2013-1-3,37.0,29.8,25.0,28.0,20.6,12.0,86,69,44,0.00,40.00,5,2,6,0.00
2013-1-4,39.0,31.9,28.0,31.0,25.7,18.0,89,78,62,0.00,40.00,4,1,5,0.00
2013-1-5,43.0,35.2,29.0,32.0,25.8,21.0,88,69,48,0.00,40.00,4,1,8,0.00
2013-1-6,35.0,30.8,26.0,26.0,21.2,6.0,94,69,34,0.00,40.00,10,3,20,0.00
2013-1-7,41.0,32.2,22.0,31.0,25.0,18.0,84,75,57,0.00,40.00,9,2,16,0.00
2013-1-8,41.0,35.1,31.0,35.0,30.9,28.0,90,84,66,0.00,40.00,4,1,5,0.00
2013-1-9,46.0,36.3,23.0,32.0,26.7,16.0,97,72,33,0.00,40.00,15,4,30,0.00
2013-1-10,23.0,20.9,19.0,21.0,14.2,8.0,95,76,58,0.00,40.00,12,6,20,0.00
2013-1-11,23.0,19.3,14.0,17.0,10.3,4.0,91,68,52,0.00,40.00,12,7,18,0.00
2013-1-12,26.0,14.9,8.0,13.0,1.2,-11.0,80,56,27,0.00,40.00,9,3,18,0.00
2013-1-13,24.0,13.8,7.0,10.0,-1.3,-18.0,78,53,15,0.00,40.00,16,4,28,0.00
2013-1-14,32.0,19.8,5.0,21.0,5.8,-7.0,80,56,30,0.00,40.00,10,3,15,0.00
2013-1-15,45.0,33.7,27.0,28.0,19.7,12.0,83,59,27,0.00,40.00,7,2,15,0.00
2013-1-16,46.0,34.7,30.0,22.0,15.5,1.0,69,48,15,0.00,40.00,5,3,9,0.00
2013-1-17,40.0,30.9,26.0,21.0,14.7,8.0,73,52,26,0.00,40.00,5,2,6,0.00
2013-1-18,38.0,30.5,25.0,25.0,18.1,5.0,78,61,31,0.00,40.00,5,2,5,0.00
2013-1-19,36.0,29.1,26.0,26.0,17.9,5.0,85,64,30,0.00,40.00,5,3,6,0.00
2013-1-20,40.0,31.6,26.0,25.0,15.7,7.0,77,54,30,0.00,40.00,4,2,6,0.00
2013-1-21,44.0,35.0,29.0,28.0,17.1,5.0,79,50,20,0.00,40.00,4,2,6,0.00
2013-1-22,43.0,35.2,29.0,31.0,24.7,13.0,88,67,41,0.00,40.00,4,1,5,0.00
2013-1-23,42.0,39.2,37.0,28.0,16.5,0.0,70,42,18,0.00,40.00,4,2,9,0.00
2013-1-24,38.0,36.1,34.0,36.0,34.4,28.0,96,93,72,0.00,40.00,3,0,4,0.00
2013-1-25,44.0,37.8,35.0,40.0,36.1,34.0,96,93,79,0.00,40.00,3,1,7,0.00
2013-1-26,42.0,36.9,31.0,35.0,28.2,20.0,93,72,44,0.00,40.00,11,4,22,0.00
2013-1-27,32.0,26.2,18.0,24.0,16.1,10.0,92,66,48,0.00,40.00,10,4,18,0.00
2013-1-28,32.0,24.9,17.0,24.0,16.4,9.0,85,70,52,0.00,40.00,14,4,22,0.00
2013-1-29,46.0,37.6,31.0,30.0,26.0,20.0,77,63,44,0.00,40.00,14,5,26,0.00
2013-1-30,45.0,36.3,31.0,33.0,26.7,19.0,83,69,42,0.00,40.00,4,2,6,0.00
2013-1-31,45.0,36.9,30.0,32.0,24.7,13.0,85,63,31,0.00,40.00,5,2,7,0.00
2013-2-1,44.0,34.2,29.0,28.0,19.8,10.0,84,57,31,0.00,40.00,3,1,5,0.00
2013-2-2,40.0,35.1,31.0,33.0,26.7,20.0,82,71,57,0.00,40.00,0,0,0,0.00
2013-2-3,46.0,35.9,30.0,34.0,25.6,16.0,89,68,30,0.00,40.00,11,2,17,0.00
2013-2-4,45.0,36.2,30.0,31.0,24.4,18.0,78,62,40,0.00,40.00,4,2,6,0.00
2013-2-5,46.0,37.7,29.0,28.0,18.8,12.0,70,47,28,0.00,40.00,8,3,17,0.00
2013-2-6,41.0,32.3,25.0,23.0,15.0,4.0,70,49,26,0.00,40.00,7,2,11,0.00
2013-2-7,37.0,31.5,23.0,27.0,10.7,-12.0,94,48,12,0.00,40.00,14,4,25,0.00
2013-2-8,29.0,23.8,18.0,16.0,11.4,7.0,78,59,39,0.00,40.00,8,3,14,0.00
2013-2-9,32.0,25.7,17.0,18.0,13.9,8.0,79,61,44,0.00,40.00,6,3,10,0.00
2013-2-10,32.0,27.4,23.0,17.0,13.5,9.0,77,56,44,0.00,40.00,15,4,26,0.00
2013-2-11,37.0,27.4,18.0,15.0,10.6,4.0,69,50,27,0.00,40.00,7,2,14,0.00
2013-2-12,42.0,32.2,25.0,27.0,18.3,13.0,70,57,37,0.00,40.00,6,2,12,0.00
2013-2-13,46.0,35.0,28.0,26.0,21.0,16.0,78,58,32,0.00,40.00,11,4,18,0.00
2013-2-14,47.0,36.6,31.0,28.0,23.6,19.0,70,60,42,0.00,40.00,5,2,10,0.00
2013-2-15,42.0,34.9,30.0,28.0,22.2,20.0,81,61,41,0.00,40.00,4,2,6,0.00
2013-2-16,43.0,36.8,30.0,33.0,25.6,16.0,79,65,39,0.00,40.00,5,1,6,0.00
2013-2-17,49.0,38.0,30.0,25.0,16.0,9.0,69,43,22,0.00,40.00,4,2,6,0.00
2013-2-18,45.0,36.6,29.0,28.0,20.6,13.0,74,53,27,0.00,40.00,14,3,29,0.00
2013-2-19,34.0,27.2,21.0,25.0,17.3,12.0,87,67,44,0.00,40.00,14,5,30,0.00
2013-2-20,35.0,27.6,19.0,24.0,12.1,3.0,73,54,29,0.00,40.00,8,3,15,0.00
2013-2-21,33.0,27.1,23.0,20.0,13.7,8.0,79,57,36,0.00,40.00,13,4,23,0.00
2013-2-25,42.0,37.0,29.0,27.0,20.7,13.0,74,53,30,0.00,40.00,8,4,12,0.00
2013-2-26,41.0,32.3,24.0,22.0,9.3,-12.0,80,42,12,0.00,40.00,8,3,15,0.00
2013-2-27,48.0,37.2,27.0,26.0,17.1,5.0,65,46,22,0.00,40.00,6,2,9,0.00
2013-2-28,49.0,40.3,31.0,32.0,26.2,18.0,72,57,45,0.00,40.00,4,2,5,0.00
2013-3-1,52.0,40.2,32.0,37.0,29.5,24.0,90,67,36,0.00,40.00,4,0,5,0.00
2013-3-2,52.0,41.2,35.0,35.0,27.9,19.0,86,61,32,0.00,40.00,8,2,15,0.00
2013-3-3,42.0,36.5,33.0,34.0,32.3,26.0,94,85,56,0.00,40.00,5,1,9,0.00
2013-3-4,33.0,30.6,29.0,31.0,28.3,26.0,94,91,87,0.00,40.00,4,2,5,0.00
2013-3-5,46.0,44.7,44.0,28.0,25.9,24.0,53,47,42,0.00,40.00,16,8,31,0.00
2013-3-7,32.0,29.8,27.0,27.0,22.8,19.0,89,75,67,0.00,40.00,5,2,7,0.00
2013-3-11,52.0,44.2,36.0,34.0,23.5,9.0,64,45,20,0.00,40.00,5,1,7,0.00
2013-3-12,52.0,42.1,34.0,35.0,26.6,19.0,75,56,30,0.00,40.00,3,1,4,0.00
2013-3-13,39.0,37.3,36.0,33.0,30.9,29.0,82,78,76,0.00,40.00,0,0,2,0.00
2013-3-14,53.0,44.1,41.0,33.0,24.1,15.0,68,47,24,0.00,40.00,4,1,7,0.00
2013-3-15,58.0,49.4,42.0,40.0,26.3,19.0,65,42,23,0.00,40.00,6,2,11,0.00
2013-3-16,54.0,42.1,34.0,33.0,24.7,12.0,85,53,20,0.00,40.00,7,3,15,0.00
2013-3-17,53.0,40.6,33.0,29.0,20.3,3.0,72,48,16,0.00,40.00,6,2,13,0.00
2013-3-18,51.0,40.3,32.0,32.0,20.9,10.0,67,47,20,0.00,40.00,5,2,9,0.00
2013-3-19,42.0,38.9,37.0,26.0,23.7,17.0,64,55,38,0.00,40.00,5,2,10,0.00
2013-3-21,47.0,41.2,31.0,33.0,24.7,8.0,73,54,22,0.00,40.00,5,2,7,0.00
2013-3-22,47.0,35.0,27.0,22.0,8.6,-7.0,69,39,10,0.00,40.00,5,3,9,0.00
2013-3-23,49.0,33.0,26.0,23.0,14.9,1.0,62,50,14,0.00,40.00,5,3,7,0.00
2013-3-25,54.0,44.7,37.0,31.0,23.4,10.0,69,45,19,0.00,40.00,8,3,15,0.00
2013-3-26,48.0,41.8,37.0,33.0,25.6,16.0,68,53,37,0.00,40.00,8,4,16,0.00
2013-3-27,51.0,43.6,38.0,37.0,33.0,28.0,83,67,48,0.00,40.00,8,3,15,0.00
2013-3-28,50.0,41.3,36.0,38.0,32.2,27.0,88,71,43,0.00,40.00,7,2,12,0.00
2013-3-29,50.0,40.6,32.0,39.0,33.7,30.0,93,77,53,0.00,40.00,4,2,8,0.00
2013-3-30,56.0,44.2,36.0,38.0,33.5,-99.9,92,71,37,0.00,40.00,6,1,11,0.00
2013-3-31,44.0,39.6,36.0,38.0,35.7,34.0,94,87,74,0.00,40.00,3,1,6,0.00
2013-4-8,38.0,33.5,29.0,28.0,19.0,13.0,92,56,36,0.00,40.00,11,6,20,0.00
2013-4-9,47.0,35.7,27.0,20.0,15.0,6.0,70,45,20,0.00,40.00,13,5,22,0.00
2013-4-10,61.0,46.7,36.0,36.0,24.5,16.0,57,42,26,0.00,40.00,8,3,16,0.00
2013-4-11,55.0,47.1,42.0,38.0,33.4,20.0,83,61,32,0.00,40.00,12,2,22,0.00
2013-4-12,59.0,45.7,35.0,40.0,30.1,20.0,75,56,29,0.00,40.00,12,2,22,0.00
2013-4-13,44.0,43.1,42.0,34.0,31.9,29.0,69,64,57,0.00,40.00,4,2,7,0.00
2013-4-15,40.0,32.2,26.0,29.0,24.5,18.0,95,74,51,0.00,40.00,9,5,19,0.00
2013-4-16,34.0,28.5,25.0,23.0,16.0,10.0,84,60,43,0.00,40.00,9,4,19,0.00
2013-4-17,41.0,29.1,21.0,22.0,10.8,5.0,84,49,23,0.00,40.00,11,5,16,0.00
2013-4-18,50.0,44.8,37.0,25.0,17.5,11.0,44,33,24,0.00,40.00,6,3,12,0.00
2013-4-19,54.0,44.3,34.0,34.0,27.4,20.0,70,52,34,0.00,40.00,9,3,12,0.00
2013-4-20,57.0,43.1,35.0,37.0,30.2,14.0,83,63,21,0.00,40.00,5,2,6,0.00
2013-4-21,65.0,44.4,38.0,38.0,33.8,27.0,84,68,24,0.00,40.00,5,1,9,0.00
2013-4-22,64.0,53.0,42.0,40.0,28.0,8.0,82,42,15,0.00,40.00,21,5,29,0.00
2013-4-23,55.0,43.0,32.0,32.0,14.7,3.0,50,32,23,0.00,40.00,19,6,34,0.00
2013-4-24,58.0,48.0,40.0,29.0,5.7,-3.0,59,19,12,0.00,40.00,21,8,38,0.00
2013-4-25,63.0,47.4,37.0,34.0,22.1,2.0,56,38,14,0.00,40.00,10,2,17,0.00
2013-4-26,66.0,49.9,38.0,41.0,29.1,7.0,77,50,10,0.00,40.00,4,2,6,0.00
2013-4-27,68.0,49.8,42.0,44.0,36.1,25.0,81,62,20,0.00,40.00,4,1,4,0.00
2013-4-30,50.0,49.2,48.0,35.0,34.2,34.0,58,56,54,0.00,40.00,3,1,4,0.00
2013-5-2,62.0,53.3,36.0,33.0,19.9,8.0,51,28,15,0.00,40.00,4,2,6,0.00
2013-5-3,68.0,52.4,42.0,41.0,27.9,7.0,74,46,11,0.00,40.00,9,2,14,0.00
2013-5-4,60.0,51.9,45.0,34.0,22.0,8.0,58,32,15,0.00,40.00,20,5,35,0.00
2013-5-5,56.0,46.5,39.0,41.0,34.2,27.0,90,64,37,0.00,40.00,14,3,22,0.00
2013-5-6,44.0,39.1,34.0,40.0,36.3,32.0,95,90,82,0.00,40.00,6,1,11,0.00
2013-5-7,45.0,38.9,34.0,39.0,36.3,33.0,95,90,71,0.00,40.00,4,1,6,0.00
2013-5-8,54.0,44.2,38.0,42.0,38.5,34.0,95,82,46,0.00,40.00,5,1,7,0.00
2013-5-9,59.0,46.6,40.0,42.0,40.0,38.0,91,79,47,0.00,40.00,4,2,7,0.00
2013-5-15,64.0,58.6,48.0,43.0,29.7,19.0,70,36,19,0.00,40.00,13,5,25,0.00
2013-5-16,49.0,43.6,42.0,38.0,20.3,-99.9,78,63,48,0.00,40.00,8,4,14,0.00
2013-5-17,56.0,46.0,37.0,36.0,28.1,-99.9,79,59,34,0.00,40.00,7,4,15,0.00
2013-5-18,58.0,46.6,36.0,38.0,31.0,19.0,79,57,25,0.00,40.00,6,3,13,0.00
2013-5-19,58.0,46.2,39.0,38.0,33.2,24.0,83,62,27,0.00,40.00,11,3,17,0.00
2013-5-21,62.0,56.5,47.0,37.0,26.3,16.0,45,32,21,0.00,40.00,15,6,30,0.00
2013-5-22,53.0,45.2,35.0,32.0,20.4,10.0,65,39,20,0.00,40.00,12,4,24,0.00
2013-5-23,50.0,40.9,32.0,30.0,20.6,9.0,68,46,23,0.00,40.00,7,4,12,0.00
2013-5-24,61.0,45.3,35.0,37.0,28.6,19.0,77,54,20,0.00,40.00,7,3,15,0.00
2013-5-25,60.0,48.2,40.0,38.0,26.3,14.0,65,44,21,0.00,40.00,5,3,11,0.00
2013-5-26,57.0,48.2,39.0,38.0,29.4,23.0,78,49,31,0.00,40.00,7,4,13,0.00
2013-5-27,54.0,45.1,39.0,42.0,33.0,20.0,87,64,26,0.00,40.00,8,3,17,0.00
2013-5-28,56.0,48.6,43.0,42.0,39.3,34.0,92,72,47,0.00,40.00,7,3,12,0.00
2013-5-29,59.0,49.8,43.0,42.0,38.1,32.0,84,65,45,0.00,40.00,7,4,20,0.00
2013-5-30,63.0,48.5,39.0,42.0,34.3,14.0,85,63,15,0.00,40.00,6,3,9,0.00
2013-5-31,54.0,48.1,42.0,39.0,37.6,34.0,72,66,55,0.00,40.00,2,1,4,0.00
2013-6-4,75.0,64.9,50.0,47.0,38.9,27.0,71,41,19,0.00,40.00,5,1,7,0.00
2013-6-5,78.0,63.8,51.0,51.0,39.4,26.0,76,45,15,0.00,40.00,4,1,5,0.00
2013-6-6,80.0,65.7,54.0,53.0,42.6,27.0,73,47,14,0.00,40.00,5,1,9,0.00
2013-6-7,84.0,66.2,53.0,54.0,40.2,24.0,69,44,12,0.00,40.00,5,1,6,0.00
2013-6-8,76.0,64.4,57.0,52.0,40.3,25.0,67,44,23,0.00,40.00,4,1,6,0.00
2013-6-13,64.0,58.3,47.0,36.0,20.5,3.0,44,25,11,0.00,40.00,5,-53,11,0.00
2013-6-14,62.0,53.2,43.0,40.0,26.1,16.0,56,36,20,0.00,40.00,13,-12,19,0.00
2013-6-28,83.0,74.3,61.0,57.0,46.8,35.0,74,40,18,0.00,40.00,8,2,15,0.00
2013-6-29,85.0,69.2,58.0,55.0,45.8,34.0,78,48,16,0.00,40.00,4,1,5,0.00
2013-6-30,84.0,70.6,59.0,56.0,48.1,42.0,71,47,25,0.00,40.00,6,1,10,0.00
2013-7-1,86.0,69.0,61.0,57.0,45.4,32.0,69,46,14,0.00,40.00,7,1,10,0.00
2013-7-2,83.0,70.4,63.0,59.0,46.4,36.0,77,45,21,0.00,40.00,9,2,14,0.00
2013-7-3,81.0,68.2,59.0,57.0,49.3,35.0,82,53,21,0.00,40.00,3,-13,4,0.00
2013-7-4,82.0,69.8,61.0,58.0,51.4,45.0,77,54,32,0.00,40.00,6,-17,11,0.00
2013-7-5,79.0,70.5,60.0,57.0,38.2,24.0,70,36,14,0.00,40.00,13,-3,27,0.00
2013-7-6,77.0,66.6,59.0,42.0,31.2,20.0,47,27,19,0.00,40.00,12,4,21,0.00
2013-7-7,78.0,67.7,59.0,45.0,35.6,25.0,49,31,19,0.00,40.00,10,-26,20,0.00
2013-7-8,79.0,63.0,59.0,46.0,30.6,-99.9,43,31,21,0.00,40.00,5,-10,10,0.00
2013-7-9,77.0,65.6,57.0,47.0,32.7,21.0,52,30,20,0.00,40.00,5,-19,7,0.00
2013-7-10,76.0,63.9,54.0,49.0,34.4,-99.9,67,37,21,0.00,40.00,12,-27,26,0.00
2013-7-11,75.0,65.7,59.0,43.0,35.7,28.0,40,33,23,0.00,40.00,11,-17,20,0.00
2013-7-12,72.0,59.4,53.0,46.0,32.7,26.0,47,37,26,0.00,40.00,5,-21,8,0.00
2013-7-13,74.0,62.0,51.0,50.0,35.0,23.0,56,38,16,0.00,40.00,4,-7,7,0.00
2013-7-14,77.0,62.2,54.0,50.0,40.3,33.0,65,46,24,0.00,40.00,5,-18,8,0.00
2013-7-15,77.0,63.8,56.0,52.0,43.2,34.0,62,48,22,0.00,40.00,5,-8,8,0.00
2013-7-16,74.0,63.7,57.0,47.0,38.2,29.0,53,40,24,0.00,40.00,7,-7,9,0.00
2013-7-17,78.0,62.0,51.0,49.0,33.8,22.0,56,37,13,0.00,40.00,5,-6,6,0.00
2013-7-18,82.0,67.1,59.0,51.0,38.0,27.0,63,37,14,0.00,40.00,6,-338,9,0.00
2013-7-19,83.0,63.5,59.0,52.0,42.7,33.0,68,49,17,0.00,40.00,0,-20,0,0.00
2013-7-25,71.0,65.8,62.0,58.0,51.8,43.0,71,62,38,0.00,40.00,6,-25,13,0.00
2013-7-26,81.0,66.8,58.0,57.0,52.3,47.0,83,62,33,0.00,40.00,5,-15,9,0.00
2013-7-27,78.0,66.1,57.0,55.0,49.5,43.0,77,56,31,0.00,40.00,5,-8,11,0.00
2013-7-28,76.0,64.0,57.0,51.0,43.2,39.0,62,47,32,0.00,40.00,6,1,7,0.00
2013-7-29,75.0,64.6,56.0,47.0,35.7,29.0,59,35,24,0.00,40.00,12,4,23,0.00
2013-7-30,75.0,65.5,58.0,48.0,39.6,34.0,49,39,27,0.00,40.00,5,3,9,0.00
2013-7-31,73.0,64.6,57.0,47.0,40.4,35.0,50,41,31,0.00,40.00,5,-34,11,0.00
2013-8-1,71.0,59.6,53.0,36.0,29.4,22.0,45,33,20,0.00,40.00,9,-49,18,0.00
2013-8-2,73.0,58.6,48.0,41.0,28.7,14.0,56,35,11,0.00,40.00,5,-21,7,0.00
2013-8-3,74.0,61.6,52.0,47.0,38.9,32.0,63,45,24,0.00,40.00,6,3,9,0.00
2013-8-4,76.0,60.8,54.0,49.0,38.8,32.0,62,45,24,0.00,40.00,4,2,7,0.00
2013-8-5,77.0,62.4,54.0,48.0,34.7,23.0,54,38,14,0.00,40.00,5,-10,8,0.00
2013-8-6,77.0,62.2,55.0,49.0,38.3,22.0,55,43,13,0.00,40.00,6,-8,9,0.00
2013-8-7,70.0,62.3,55.0,47.0,38.5,33.0,54,42,30,0.00,40.00,7,3,13,0.00
2013-8-8,68.0,58.9,51.0,46.0,39.1,31.0,63,48,27,0.00,40.00,7,-14,10,0.00
2013-8-9,69.0,59.8,52.0,46.0,39.5,25.0,64,48,26,0.00,40.00,10,-6,19,0.00
2013-8-10,69.0,58.5,50.0,44.0,31.5,21.0,57,37,25,0.00,40.00,7,3,11,0.00
2013-8-11,71.0,59.0,50.0,46.0,34.6,25.0,55,41,23,0.00,40.00,6,-8,8,0.00
2013-8-12,73.0,58.8,51.0,47.0,38.8,33.0,66,49,27,0.00,40.00,5,-10,7,0.00
2013-8-13,75.0,61.5,55.0,47.0,31.4,-99.9,58,38,16,0.00,40.00,5,2,7,0.00
2013-8-14,59.0,58.0,57.0,33.0,29.9,28.0,38,34,30,0.00,40.00,5,4,5,0.00
2013-8-22,72.0,65.4,58.0,41.0,38.0,35.0,50,37,27,0.00,40.00,9,5,15,0.00
2013-8-24,71.0,59.2,53.0,44.0,30.7,-99.9,57,36,21,0.00,40.00,9,3,18,0.00
2013-8-25,68.0,60.2,53.0,45.0,35.5,27.0,59,40,31,0.00,40.00,12,5,26,0.00
2013-8-26,71.0,61.1,53.0,49.0,38.2,32.0,59,43,26,0.00,40.00,12,4,23,0.00
2013-8-27,69.0,57.7,54.0,48.0,33.1,26.0,59,40,31,0.00,40.00,5,2,5,0.00
2013-8-28,72.0,67.1,59.0,51.0,46.5,41.0,61,47,39,0.00,40.00,10,4,23,0.00
2013-8-29,74.0,64.2,58.0,48.0,38.9,33.0,53,40,25,0.00,40.00,8,-10,17,0.00
2013-8-30,60.0,59.7,59.0,40.0,34.0,32.0,50,38,34,0.00,40.00,3,2,5,0.00
2013-9-4,74.0,70.0,62.0,52.0,47.6,45.0,53,45,38,0.00,40.00,11,-52,20,0.00
2013-9-5,72.0,64.5,57.0,42.0,38.7,34.0,51,39,26,0.00,40.00,13,5,26,0.00
2013-9-6,74.0,63.9,56.0,48.0,39.2,34.0,49,40,30,0.00,40.00,7,2,12,0.00
2013-9-7,74.0,60.6,54.0,48.0,37.1,-99.9,61,45,26,0.00,40.00,4,2,6,0.00
2013-9-8,76.0,64.8,54.0,49.0,37.0,30.0,62,38,20,0.00,40.00,5,2,6,0.00
2013-9-9,77.0,62.9,55.0,48.0,35.5,26.0,60,39,17,0.00,40.00,11,-17,17,0.00
2013-9-10,77.0,62.7,56.0,38.0,31.7,23.0,49,32,15,0.00,40.00,10,3,16,0.00
2013-9-11,73.0,63.6,56.0,50.0,39.6,34.0,58,42,25,0.00,40.00,5,3,8,0.00
2013-9-12,73.0,62.5,53.0,54.0,43.3,36.0,93,52,31,0.00,40.00,5,2,7,0.00
2013-9-13,69.0,59.2,52.0,55.0,50.8,45.0,92,75,52,0.00,40.00,4,2,5,0.00
2013-9-14,76.0,60.7,54.0,54.0,45.0,-99.9,79,60,31,0.00,40.00,7,2,14,0.00
2013-9-15,72.0,62.9,56.0,47.0,39.8,31.0,71,44,27,0.00,40.00,15,-11,28,0.00
2013-9-16,73.0,63.9,56.0,47.0,35.7,29.0,60,36,23,0.00,40.00,11,5,21,0.00
2013-9-17,61.0,56.0,53.0,38.0,34.2,28.0,51,44,34,0.00,40.00,9,4,18,0.00
2013-9-20,66.0,60.0,52.0,33.0,30.0,23.0,43,33,25,0.00,40.00,17,10,31,0.00
2013-9-21,55.0,46.7,36.0,42.0,33.1,-99.9,91,64,28,0.00,40.00,15,6,27,3.00
2013-9-22,57.0,45.9,37.0,40.0,35.2,28.0,84,67,39,0.00,40.00,7,3,10,0.00
2013-9-23,67.0,49.7,41.0,42.0,36.3,20.0,87,64,21,0.00,40.00,5,3,9,0.00
2013-9-24,62.0,55.3,48.0,38.0,27.4,10.0,56,35,18,0.00,40.00,15,7,30,0.00
2013-9-25,49.0,43.1,34.0,35.0,28.4,23.0,86,57,37,0.00,40.00,12,6,24,0.00
2013-9-26,44.0,37.6,31.0,27.0,23.1,19.0,70,57,36,0.00,40.00,12,4,18,0.00
2013-9-27,56.0,43.3,34.0,30.0,24.5,19.0,64,48,27,0.00,40.00,9,3,14,0.00
2013-9-28,63.0,50.9,42.0,39.0,27.4,-99.9,59,42,30,0.00,40.00,7,2,14,0.00
2013-9-29,60.0,54.4,51.0,36.0,30.0,21.0,47,40,27,0.00,40.00,14,7,28,0.00
2013-9-30,61.0,53.6,50.0,41.0,33.2,25.0,59,46,34,0.00,40.00,9,-11,16,0.00
2013-10-1,59.0,51.2,47.0,41.0,33.4,21.0,62,51,35,0.00,40.00,6,3,8,0.00
2013-10-2,58.0,50.1,44.0,33.0,25.1,19.0,58,38,26,0.00,40.00,7,4,17,0.00
2013-10-3,48.0,42.8,36.0,32.0,21.6,11.0,67,44,24,0.00,40.00,10,-13,20,0.00
2013-10-4,51.0,39.9,33.0,25.0,17.5,10.0,68,42,23,0.00,40.00,10,4,23,0.00
2013-10-5,60.0,44.1,36.0,28.0,16.2,10.0,44,33,18,0.00,40.00,5,3,7,0.00
2013-10-6,67.0,51.9,42.0,39.0,23.8,15.0,61,36,14,0.00,40.00,4,1,7,0.00
2013-10-7,62.0,51.1,45.0,27.0,21.4,11.0,49,32,18,0.00,40.00,5,2,7,0.00
2013-10-8,56.0,48.2,42.0,29.0,18.1,9.0,42,30,22,0.00,40.00,5,3,8,0.00
2013-10-9,45.0,40.5,35.0,32.0,27.2,19.0,82,61,37,0.00,40.00,12,4,22,0.00
2013-10-10,55.0,43.2,35.0,38.0,31.9,25.0,83,66,34,0.00,40.00,6,3,9,0.00
2013-10-11,57.0,44.6,37.0,37.0,30.5,19.0,83,61,23,0.00,40.00,6,2,8,0.00
2013-10-12,56.0,43.6,37.0,35.0,26.0,-99.9,66,53,30,0.00,40.00,7,3,17,0.00
2013-10-13,49.0,41.1,35.0,32.0,29.0,26.0,89,63,47,0.00,40.00,9,3,16,1.00
2013-10-14,53.0,41.8,33.0,33.0,27.7,22.0,76,58,39,0.00,40.00,9,3,19,0.00
2013-10-16,61.0,44.5,35.0,35.0,23.3,13.0,68,45,23,0.00,40.00,7,3,11,0.00
2013-10-17,61.0,47.5,39.0,38.0,26.2,12.0,72,48,19,0.00,40.00,12,3,21,0.00
2013-10-18,58.0,47.6,40.0,32.0,22.8,16.0,48,38,26,0.00,40.00,5,3,7,0.00
2013-10-19,57.0,46.1,41.0,40.0,26.4,-99.9,68,50,26,0.00,40.00,4,2,5,0.00
2013-10-20,62.0,49.5,42.0,37.0,26.3,16.0,66,44,20,0.00,40.00,7,2,13,0.00
2013-10-21,55.0,49.0,44.0,27.0,19.8,15.0,48,32,22,0.00,40.00,4,2,8,0.00
2013-10-22,60.0,47.9,43.0,37.0,23.7,16.0,59,40,23,0.00,40.00,4,2,7,0.00
2013-10-23,64.0,49.6,42.0,33.0,22.1,12.0,58,37,13,0.00,40.00,9,2,16,0.00
2013-10-24,60.0,46.5,42.0,36.0,22.2,17.0,56,38,25,0.00,40.00,5,2,6,0.00
2013-10-25,57.0,47.0,41.0,36.0,24.0,11.0,63,43,19,0.00,40.00,4,2,5,0.00
2013-10-26,56.0,47.2,42.0,30.0,21.5,16.0,53,37,22,0.00,40.00,5,2,6,0.00
2013-10-27,58.0,48.1,34.0,31.0,24.5,17.0,88,41,23,0.00,40.00,21,6,36,0.00
2013-10-28,36.0,32.5,30.0,32.0,27.8,-99.9,97,88,74,0.00,40.00,7,3,16,2.00
2013-10-29,37.0,34.7,32.0,32.0,29.1,28.0,88,80,73,0.00,40.00,8,4,13,0.00
2013-10-31,55.0,44.2,34.0,38.0,31.3,25.0,72,60,45,0.00,40.00,5,2,7,0.00
2013-11-1,53.0,42.9,36.0,39.0,31.3,26.0,79,64,45,0.00,40.00,5,2,5,0.00
2013-11-2,56.0,47.4,41.0,34.0,25.8,15.0,76,45,26,0.00,40.00,10,3,17,0.00
2013-11-3,47.0,40.7,32.0,32.0,27.6,12.0,76,60,41,0.00,40.00,13,-15,22,0.00
2013-11-4,42.0,33.4,28.0,17.0,13.0,9.0,57,44,25,0.00,40.00,15,6,24,0.00
2013-11-5,51.0,37.2,27.0,26.0,19.6,10.0,69,49,32,0.00,40.00,5,2,8,0.00
2013-11-6,53.0,43.5,37.0,33.0,25.1,20.0,76,50,30,0.00,40.00,4,1,5,0.00
2013-11-7,46.0,45.4,45.0,25.0,22.4,20.0,45,40,36,0.00,40.00,1,0,2,0.00
2013-11-8,57.0,54.2,47.0,28.0,21.8,17.0,36,28,21,0.00,40.00,4,2,9,0.00
2013-11-9,58.0,46.5,42.0,30.0,19.5,-99.9,51,37,24,0.00,40.00,5,2,5,0.00
2013-11-10,55.0,45.7,41.0,28.0,20.0,3.0,47,37,17,0.00,40.00,5,1,6,0.00
2013-11-11,46.0,43.8,42.0,19.0,12.4,7.0,36,28,21,0.00,40.00,3,1,4,0.00
2013-11-12,57.0,51.7,46.0,29.0,19.9,15.0,38,29,21,0.00,40.00,4,1,7,0.00
2013-11-13,55.0,46.4,42.0,30.0,23.5,15.0,49,41,29,0.00,40.00,5,0,9,0.00
2013-11-14,55.0,49.1,42.0,24.0,22.1,17.0,44,35,23,0.00,40.00,7,4,10,0.00
2013-11-15,44.0,39.6,37.0,24.0,20.7,18.0,53,46,38,0.00,40.00,6,3,11,0.00
2013-11-16,46.0,41.2,37.0,26.0,17.6,-99.9,52,41,27,0.00,40.00,8,4,14,0.00
2013-11-17,51.0,41.9,37.0,25.0,20.8,17.0,54,43,32,0.00,40.00,5,2,7,0.00
2013-11-18,48.0,41.7,39.0,25.0,22.1,18.0,54,46,36,0.00,40.00,11,3,21,0.00
2013-11-19,46.0,43.6,40.0,27.0,23.4,22.0,50,45,42,0.00,40.00,9,5,18,0.00
2013-11-20,44.0,39.7,37.0,28.0,26.4,25.0,63,59,49,0.00,40.00,6,2,7,0.00
2013-11-21,38.0,29.0,27.0,27.0,14.2,5.0,63,54,41,0.00,40.00,12,6,36,0.00
2013-11-22,35.0,31.5,25.0,8.0,4.0,-4.0,44,31,23,0.00,40.00,11,6,21,0.00
2013-11-23,40.0,33.8,31.0,7.0,2.0,-99.9,36,27,17,0.00,40.00,10,4,22,0.00
2013-11-24,44.0,36.0,30.0,16.0,8.6,4.0,43,32,22,0.00,40.00,5,3,8,0.00
2013-11-25,47.0,41.4,35.0,23.0,17.6,11.0,49,38,26,0.00,40.00,5,2,5,0.00
2013-11-26,48.0,41.7,38.0,26.0,20.3,14.0,51,42,32,0.00,40.00,4,2,5,0.00
2013-11-27,48.0,41.5,39.0,26.0,20.9,16.0,53,44,35,0.00,40.00,5,2,5,0.00
2013-11-28,47.0,39.9,37.0,24.0,20.4,18.0,52,45,33,0.00,40.00,5,3,9,0.00
2013-11-29,46.0,39.1,35.0,24.0,20.4,15.0,58,47,36,0.00,40.00,5,2,6,0.00
2013-11-30,36.0,36.0,36.0,19.0,19.0,19.0,50,50,50,0.00,40.00,3,3,4,0.00
2013-12-2,52.0,47.1,44.0,24.0,17.3,11.0,45,31,19,0.00,40.00,11,6,22,0.00
2013-12-3,44.0,28.4,22.0,24.0,13.1,8.0,59,52,45,0.00,40.00,13,7,26,0.00
2013-12-4,28.0,20.8,18.0,4.0,-0.3,-2.0,42,39,34,0.00,40.00,7,2,15,0.00
2013-12-5,31.0,25.6,18.0,8.0,4.0,0.0,49,39,26,0.00,40.00,5,3,8,0.00
2013-12-6,33.0,27.2,22.0,16.0,0.9,-13.0,62,35,15,0.00,40.00,9,5,17,0.00
2013-12-7,28.0,24.3,20.0,17.0,11.8,4.0,63,58,48,0.00,40.00,13,8,30,0.00
2013-12-9,33.0,31.0,29.0,9.0,5.9,2.0,40,34,28,0.00,40.00,5,1,5,0.00
2013-12-10,40.0,35.3,29.0,21.0,15.0,9.0,58,44,34,0.00,40.00,5,2,5,0.00
2013-12-11,40.0,35.1,31.0,14.0,11.9,10.0,47,38,33,0.00,40.00,5,2,7,0.00
2013-12-12,41.0,36.4,31.0,24.0,17.7,3.0,57,48,24,0.00,40.00,5,1,5,0.00
2013-12-13,43.0,35.7,32.0,16.0,10.0,-1.0,45,34,23,0.00,40.00,5,3,9,0.00
2013-12-14,43.0,36.3,32.0,19.0,12.6,-99.9,51,41,34,0.00,40.00,5,2,5,0.00
2013-12-15,44.0,39.4,34.0,24.0,20.4,17.0,56,46,37,0.00,40.00,3,0,4,0.00
2013-12-16,44.0,39.8,35.0,26.0,22.9,16.0,60,51,38,0.00,40.00,0,0,0,0.00
2013-12-17,42.0,41.6,41.0,27.0,22.5,17.0,55,47,37,0.00,40.00,0,0,0,0.00
2013-12-18,48.0,41.2,39.0,28.0,22.9,17.0,58,48,33,0.00,40.00,9,1,25,0.00
2013-12-19,41.0,31.1,23.0,20.0,13.9,7.0,62,49,34,0.00,40.00,13,5,28,0.00
2013-12-20,40.0,30.5,22.0,20.0,7.2,-5.0,51,39,16,0.00,40.00,4,2,7,0.00
2013-12-21,45.0,38.8,36.0,24.0,17.1,-99.9,51,44,34,0.00,40.00,10,4,16,0.00
2013-12-22,45.0,37.2,34.0,23.0,19.8,16.0,53,49,39,0.00,40.00,4,2,8,0.00
2013-12-23,43.0,37.8,35.0,26.0,22.0,18.0,60,53,42,0.00,40.00,4,1,5,0.00
2013-12-24,40.0,36.9,35.0,24.0,21.4,18.0,60,53,41,0.00,40.00,4,2,5,0.00
2013-12-25,43.0,35.5,32.0,22.0,19.4,11.0,61,52,32,0.00,40.00,5,2,6,0.00
2013-12-26,43.0,36.6,33.0,21.0,16.9,8.0,54,45,27,0.00,40.00,4,1,5,0.00
2013-12-27,43.0,37.7,33.0,27.0,19.3,-1.0,59,48,18,0.00,40.00,4,1,6,0.00
2013-12-28,45.0,36.6,34.0,12.0,4.8,-99.9,40,28,18,0.00,40.00,6,2,13,0.00
2013-12-29,41.0,35.0,32.0,16.0,12.1,8.0,47,39,27,0.00,40.00,5,2,5,0.00
2013-12-30,46.0,41.6,37.0,25.0,20.6,3.0,51,44,18,0.00,40.00,0,0,0,0.00
2013-12-31,48.0,42.8,38.0,22.0,13.3,3.0,40,30,19,0.00,40.00,0,0,0,0.00
2014-1-1,44.0,38.4,35.0,24.0,18.6,14.0,56,45,32,0.00,40.00,0,0,0,0.00
2014-1-2,44.0,38.9,35.0,25.0,21.5,17.0,58,50,36,0.00,40.00,0,0,0,0.00